User: anonymous   Login
Location: Alsip
(41.6689°N, 87.7387°W)
Time: 14:10:21
(UTC+00:00)
Language:

Cosmos 1356 - Orbit

View from above orbital plane
View from above orbital plane
View from above satellite
View from above satellite

Ground track
Ground track

The orbit data is extracted from the following two-line orbital elements,

1 13153U 82039A   20274.94290339  .00003729  00000-0  91287-4 0  9991
2 13153  81.0902 229.5648 0001075 230.5525 129.5622 15.40492809104369
Epoch (UTC): 30 September 2020 22:37:46
Eccentricity: 0.0001075
inclination: 81.0902°
perigee height: 444 km
apogee height: 445 km
right ascension of ascending node: 229.5648°
argument of perigee: 230.5525°
revolutions per day: 15.40492809
mean anomaly at epoch: 129.5622°
orbit number at epoch: 10436

The dashed part of the orbit path shows where the satellite is in the earth's shadow,  

DLR